This demonstration page uses our WeatherBlox Daily Observations layout. Learn more.

Left ArrowRight Arrow

40.92945, -100.16068

Hourly Observations for February 11, 2020

Temp ( °F °C ) Dew Point ( °F °C ) Humidity (%) Winds ( mph kmh ) Pressure ( in mb ) Visibility ( mi km ) Precip ( " mm )
12:15 am 00:15 Cloudy 29 -1.7 22 -5.7 74 74 NNW 7 11 30.41 1030 10 16 N/A
12:35 am 00:35 Cloudy 28 -2 22 -5.5 77 77 NNW 3 6 30.41 1030 10 16 N/A
12:55 am 00:55 Mostly Cloudy 30 -1 20 -6.9 65 65 N 9 15 30.39 1029 10 16 N/A
1:15 am 01:15 Partly Cloudy 29 -1.9 20 -6.7 70 70 NW 5 7 30.40 1029 10 16 N/A
1:35 am 01:35 Partly Cloudy 28 -2.5 20 -6.6 74 74 WNW 5 7 30.41 1030 10 16 N/A
1:55 am 01:55 Clear 27 -3 20 -6.6 76 76 WNW 5 7 30.41 1030 10 16 N/A
2:15 am 02:15 Clear 25 -3.7 20 -6.5 81 81 WNW 7 11 30.42 1030 10 16 N/A
2:35 am 02:35 Clear 26 -3.6 20 -6.6 80 80 WNW 8 13 30.41 1030 10 16 N/A
2:55 am 02:55 Clear 25 -4 19 -7.3 78 78 NW 9 15 30.42 1030 10 16 N/A
3:15 am 03:15 Clear 25 -3.8 19 -7 79 79 WNW 8 13 30.42 1030 10 16 N/A
3:35 am 03:35 Clear 25 -4.1 19 -7.5 77 77 WNW 8 13 30.42 1030 10 16 N/A
3:55 am 03:55 Clear 23 -5 19 -7.5 83 83 WNW 7 11 30.43 1030 10 16 N/A
4:15 am 04:15 Clear 23 -4.9 18 -7.6 82 82 WNW 7 11 30.43 1030 10 16 N/A
4:35 am 04:35 Clear 23 -5 18 -7.6 82 82 WNW 9 15 30.42 1030 10 16 N/A
4:55 am 04:55 Clear 22 -5.6 18 -8 83 83 WNW 9 15 30.43 1030 10 16 N/A
5:15 am 05:15 Clear 21 -6 17 -8.4 83 83 WNW 8 13 30.43 1030 10 16 N/A
5:35 am 05:35 Clear 22 -5.8 17 -8.2 83 83 WNW 7 11 30.43 1030 10 16 N/A
5:55 am 05:55 Clear 21 -6 18 -7.9 87 87 WNW 8 13 30.43 1030 10 16 N/A
6:15 am 06:15 Clear 21 -6.1 17 -8.1 86 86 WNW 8 13 30.43 1030 10 16 N/A
6:35 am 06:35 Clear 21 -6.2 17 -8.2 86 86 W 6 9 30.43 1031 10 16 N/A
6:55 am 06:55 Clear 21 -6.2 17 -8.6 83 83 WNW 8 13 30.42 1030 10 16 N/A
7:15 am 07:15 Clear 19 -7 16 -9.1 85 85 WNW 7 11 30.43 1030 10 16 N/A
7:35 am 07:35 Clear 19 -7 16 -9 86 86 WNW 7 11 30.43 1030 10 16 N/A
7:55 am 07:55 Sunny 19 -7.3 16 -9 88 88 W 3 6 30.44 1031 10 16 N/A
8:15 am 08:15 Sunny 18 -7.7 15 -9.2 89 89 N N/A 30.45 1031 10 16 N/A
8:35 am 08:35 Sunny 21 -6.1 17 -8.1 86 86 W 3 6 30.43 1030 10 16 N/A
8:55 am 08:55 Sunny 24 -4.4 19 -7.1 82 82 W 7 11 30.41 1030 10 16 N/A
9:15 am 09:15 Sunny 27 -3 20 -6.8 75 75 W 9 15 30.41 1030 10 16 N/A
9:35 am 09:35 Sunny 29 -1.8 20 -6.7 70 70 W 10 17 30.39 1029 10 16 N/A
9:55 am 09:55 Sunny 30 -1 20 -6.5 67 67 W 9 15 30.39 1029 10 16 N/A
10:15 am 10:15 Sunny 31 -0.5 21 -6.3 65 65 W 8 13 30.37 1029 10 16 N/A
10:35 am 10:35 Sunny 32 0.2 21 -6 63 63 W 8 13 30.36 1028 10 16 N/A
10:55 am 10:55 Sunny 34 1 21 -5.9 60 60 W 7 11 30.34 1027 10 16 N/A
11:15 am 11:15 Sunny 35 1.8 20 -6.5 55 55 WSW 9 15 30.33 1027 10 16 N/A
11:35 am 11:35 Sunny 36 2.2 21 -6.3 54 54 WSW 10 17 30.32 1027 10 16 N/A
11:55 am 11:55 Sunny 37 2.8 20 -6.9 49 49 WSW 10 17 30.29 1026 10 16 N/A
12:15 pm 12:15 Sunny 38 3.2 19 -7.4 46 46 WSW 14 22 30.28 1025 10 16 N/A
12:35 pm 12:35 Sunny 39 3.9 17 -8.4 41 41 WSW 12 19 30.25 1024 10 16 N/A
12:55 pm 12:55 Sunny 40 4.2 16 -8.9 38 38 WSW 13 20 30.23 1024 10 16 N/A
1:15 pm 13:15 Sunny 41 4.8 15 -9.7 34 34 WSW 14 22 30.20 1023 10 16 N/A
1:35 pm 13:35 Sunny 41 5.1 15 -9.4 35 35 SW 16 26 30.18 1022 10 16 N/A
1:55 pm 13:55 Sunny 41 5.2 15 -9.5 34 34 SW 15 24 30.17 1022 10 16 N/A
2:15 pm 14:15 Sunny 42 5.7 15 -9.2 34 34 WSW 13 20 30.15 1021 10 16 N/A
2:35 pm 14:35 Sunny 42 5.8 17 -8.4 36 36 SW 18 30 30.13 1020 10 16 N/A
2:55 pm 14:55 Sunny 42 5.8 15 -9.7 32 32 WSW 16 26 30.11 1020 10 16 N/A
3:15 pm 15:15 Sunny 43 5.9 18 -7.7 37 37 SW 16 26 30.10 1019 10 16 N/A
3:35 pm 15:35 Sunny 44 6.4 20 -6.9 38 38 SW 17 28 30.07 1018 10 16 N/A
3:55 pm 15:55 Sunny 43 6.2 19 -7.2 38 38 SW 20 31 30.07 1018 10 16 N/A
4:15 pm 16:15 Sunny 43 6.3 18 -7.9 36 36 SSW 18 30 30.06 1018 10 16 N/A
4:35 pm 16:35 Sunny 43 6.2 17 -8.2 35 35 SSW 17 28 30.05 1017 10 16 N/A
4:55 pm 16:55 Sunny 43 6 18 -7.7 37 37 SW 18 30 30.04 1017 10 16 N/A
5:15 pm 17:15 Sunny 42 5.7 19 -7.4 39 39 SW 16 26 30.03 1017 10 16 N/A
5:35 pm 17:35 Sunny 41 5.2 19 -7.5 40 40 SSW 16 26 30.03 1017 10 16 N/A
5:55 pm 17:55 Sunny 40 4.5 18 -7.6 41 41 SSW 14 22 30.02 1017 10 16 N/A
6:15 pm 18:15 Clear 38 3.5 19 -7.5 45 45 SSW 14 22 30.02 1017 10 16 N/A
6:35 pm 18:35 Clear 37 2.5 19 -7 50 50 SSW 13 20 30.03 1017 10 16 N/A
6:55 pm 18:55 Clear 36 2 20 -6.7 53 53 SSW 12 19 30.04 1017 10 16 N/A
7:15 pm 19:15 Clear 35 1.5 20 -6.5 56 56 S 13 20 30.03 1017 10 16 N/A
7:35 pm 19:35 Clear 35 1.6 21 -6.2 57 57 SSW 14 22 30.03 1017 10 16 N/A
7:55 pm 19:55 Clear 36 2.2 22 -5.3 58 58 SSW 16 26 30.03 1017 10 16 N/A
8:15 pm 20:15 Clear 36 2.1 24 -4.6 62 62 SSW 18 30 30.03 1017 10 16 N/A
8:35 pm 20:35 Clear 35 1.8 24 -4.3 64 64 SSW 20 31 30.02 1017 10 16 N/A
8:55 pm 20:55 Clear 35 1.5 25 -4.1 67 67 SSW 17 28 30.02 1017 10 16 N/A
9:15 pm 21:15 Clear 34 1.2 25 -4 69 69 SSW 18 30 30.01 1016 10 16 N/A
9:35 pm 21:35 Clear 34 1 25 -4 70 70 SSW 20 31 30.02 1016 10 16 N/A
9:55 pm 21:55 Clear 33 0.6 25 -3.8 73 73 SSW 20 31 30.02 1017 10 16 N/A
10:15 pm 22:15 Clear 33 0.4 25 -3.8 74 74 SSW 17 28 30.01 1016 10 16 N/A
10:35 pm 22:35 Clear 32 0.1 25 -3.7 76 76 SSW 20 31 30.02 1016 10 16 N/A
10:55 pm 22:55 Clear 32 undefined 25 -3.8 76 76 SSW 20 31 30.02 1016 10 16 N/A
11:15 pm 23:15 Clear 31 -0.3 25 -3.8 78 78 SSW 16 26 30.01 1016 10 16 N/A
11:35 pm 23:35 Clear 32 -0.2 25 -3.8 77 77 SSW 15 24 30.00 1016 10 16 N/A
11:55 pm 23:55 Clear 31 -0.4 25 -4 77 77 SW 17 28 30.00 1016 10 16 N/A

Powered by AerisWeather